NOAA 16 DEB, 41503

Orbit data source: Space-Track

NOAA 16 DEB, 41503 is space debris in SSO originally from a launch on Thu, 21 Sep 2000 UTC launched from the Air Force Western Test Range (AFWTR). Debris objects in space refer to the collection of defunct objects orbiting the Earth. Examples of debris include non-operational satellites, rocket bodies, and fragments generated from explosions, collisions, or faulty payload assembly.

Loading next visibility...
Identifier
41503, 2000-055MB
Orbit
SSO
Last TLE update
1 day ago
Origin
Manufacturer
Unknown
Mission
Spacecraft
Bus & Motor
Unknown
Mass
Unknown
Launch date (UTC)
2000-09-21 (25 years ago)
Launch vehicle
Unknown
Launch site
Air Force Western Test Range (AFWTR)
Object type
Payload
Rocket body
Debris
Shape & HBR
Unknown
Radar Cross Section
Small (<0.1 m²)

Expand to show TLE details & history

TLE from 1 day ago
0 NOAA 16 DEB
1 41503U 00055MB  25198.58824911  .00007819  00000-0  19416-2 0  9994
2 41503  98.7681 322.8897 0023347   8.6663 351.4930 14.51938966487209
Epoch: 2025-07-17T14:07Z
TLE epoch observation values (Epoch: 2025-07-17T14:07:04.723Z)
Latitude
0.00006°
Longitude
175.46811°
Altitude
705.888 km
Speed
7.512 km/s
True Right ascension
21h 31m 33s
True Declination
0° 00' 00"
Sunlit
Object was in full shadow at epoch
Visualization orbit readout
Latitude
-58.93787°
Longitude
-168.3503°
Altitude
734.807 km
Speed
7.49 km/s
Apparent Right ascension
23h 14m 18s
Apparent Declination
-50° 04' 05"
Sunlit
Object is in full shadow
Visualization observer readout
Local Sidereal Time
11:42:48
Azimuth
156.075° SSE
Elevation
-78.679°
Doppler factor
1
Orbital elements
Apogee altitude
733.005 km
Perigee altitude
699.878 km
Semi-major axis
7,094.579 km
Eccentricity
0.00233
Inclination
98.7681°
RAAN
322.8897°
Arg. of periapsis
8.6663°
True anomaly
351.45331°
Mean anomaly
351.493°
Eccentric anomaly
351.47317°
Mean motion
3.63206 °/min
Orbital period
99.12 mins
BSTAR
0.0019416
Loading maneuver chart data...
Loading SW <> Apogee altitude chart data...
Loading historical data...
Loading historical data...
Loading historical data...
Loading historical data...
Loading historical data...
Loading historical data...
Loading historical data...
|